GLO1622 SBBR-SBCF

Flight info

Callsign GLO1622
Flight time 0h 52m
Altitude 33000
Route SEMD2A GEPMO UZ35 REINA ENSI1A
Aircraft B738/M-SDFGIKLORWXY/LB1

Departure

Time 2026-05-07 12:31
Airport Presidente Juscelino Kubitschek International Airport (SBBR)

Arrival

Time 2026-05-07 13:23
Airport Tancredo Neves International Airport (SBCF)
Time Latitude Longitude Altitude Speed Heading
2026-05-07 12:14 -15.86750 -47.91756 3471 ft 0 kts 266°
2026-05-07 12:14 -15.86750 -47.91754 3471 ft 0 kts 266°
2026-05-07 12:23 -15.86749 -47.91744 3471 ft 4 kts 269°
2026-05-07 12:23 -15.86753 -47.91720 3471 ft 4 kts 323°
2026-05-07 12:23 -15.86774 -47.91708 3471 ft 4 kts 341°
2026-05-07 12:24 -15.86800 -47.91703 3471 ft 4 kts 358°
2026-05-07 12:24 -15.86818 -47.91703 3471 ft 0 kts 356°
2026-05-07 12:26 -15.86792 -47.91704 3469 ft 8 kts 356°
2026-05-07 12:26 -15.86723 -47.91709 3471 ft 10 kts 356°
2026-05-07 12:26 -15.86652 -47.91715 3470 ft 10 kts 346°
2026-05-07 12:26 -15.86612 -47.91769 3469 ft 10 kts 282°
2026-05-07 12:27 -15.86566 -47.91811 3467 ft 11 kts 359°
2026-05-07 12:27 -15.86496 -47.91853 3468 ft 14 kts 286°
2026-05-07 12:27 -15.86499 -47.91953 3468 ft 15 kts 266°
2026-05-07 12:27 -15.86506 -47.92062 3467 ft 15 kts 266°
2026-05-07 12:28 -15.86512 -47.92167 3466 ft 14 kts 266°
2026-05-07 12:28 -15.86519 -47.92268 3468 ft 14 kts 266°
2026-05-07 12:28 -15.86525 -47.92370 3468 ft 15 kts 266°
2026-05-07 12:28 -15.86532 -47.92472 3466 ft 14 kts 266°
2026-05-07 12:29 -15.86538 -47.92571 3463 ft 14 kts 265°
2026-05-07 12:29 -15.86546 -47.92675 3463 ft 14 kts 265°
2026-05-07 12:29 -15.86510 -47.92763 3460 ft 16 kts 342°
2026-05-07 12:29 -15.86401 -47.92749 3459 ft 16 kts 40°
2026-05-07 12:30 -15.86351 -47.92640 3460 ft 28 kts 84°
2026-05-07 12:30 -15.86322 -47.92204 3465 ft 94 kts 86°
2026-05-07 12:30 -15.86265 -47.91314 3463 ft 151 kts 86°
2026-05-07 12:30 -15.86182 -47.90056 3515 ft 195 kts 86°
2026-05-07 12:31 -15.86092 -47.88695 4431 ft 182 kts 87°
2026-05-07 12:31 -15.86362 -47.87435 5095 ft 183 kts 127°
2026-05-07 12:31 -15.87458 -47.86780 5490 ft 191 kts 172°
2026-05-07 12:31 -15.88782 -47.86651 5941 ft 194 kts 173°
2026-05-07 12:32 -15.90139 -47.86522 6376 ft 197 kts 172°
2026-05-07 12:32 -15.91505 -47.86380 6847 ft 198 kts 172°
2026-05-07 12:32 -15.92884 -47.86228 7311 ft 200 kts 171°
2026-05-07 12:32 -15.94273 -47.86065 7773 ft 201 kts 171°
2026-05-07 12:33 -15.97213 -47.85698 8387 ft 234 kts 171°
2026-05-07 12:33 -15.98902 -47.85480 8552 ft 256 kts 171°
2026-05-07 12:33 -16.00763 -47.85239 8725 ft 282 kts 171°
2026-05-07 12:34 -16.02747 -47.84976 9191 ft 296 kts 171°
2026-05-07 12:34 -16.04809 -47.84702 9914 ft 301 kts 171°
2026-05-07 12:34 -16.06892 -47.84429 10649 ft 306 kts 172°
2026-05-07 12:34 -16.09100 -47.84323 10876 ft 330 kts 180°
2026-05-07 12:35 -16.11474 -47.84385 11076 ft 351 kts 180°
2026-05-07 12:35 -16.13956 -47.84362 11509 ft 361 kts 170°
2026-05-07 12:35 -16.16288 -47.83441 12152 ft 360 kts 146°
2026-05-07 12:35 -16.18200 -47.81768 12901 ft 360 kts 135°
2026-05-07 12:36 -16.19994 -47.79936 13535 ft 363 kts 134°
2026-05-07 12:36 -16.21782 -47.78061 14121 ft 368 kts 134°
2026-05-07 12:36 -16.23591 -47.76159 14732 ft 371 kts 134°
2026-05-07 12:36 -16.25416 -47.74250 15341 ft 373 kts 135°
2026-05-07 12:37 -16.27258 -47.72333 15929 ft 377 kts 135°
2026-05-07 12:37 -16.29130 -47.70395 16515 ft 379 kts 135°
2026-05-07 12:37 -16.30988 -47.68480 17062 ft 382 kts 135°
2026-05-07 12:37 -16.32890 -47.66526 17615 ft 385 kts 135°
2026-05-07 12:38 -16.34804 -47.64559 18162 ft 388 kts 135°
2026-05-07 12:38 -16.36732 -47.62578 18660 ft 391 kts 135°
2026-05-07 12:38 -16.38677 -47.60580 19188 ft 393 kts 135°
2026-05-07 12:38 -16.40617 -47.58587 19699 ft 395 kts 136°
2026-05-07 12:39 -16.42575 -47.56574 20188 ft 397 kts 136°
2026-05-07 12:39 -16.44553 -47.54540 20640 ft 400 kts 136°
2026-05-07 12:39 -16.46538 -47.52498 21105 ft 402 kts 136°
2026-05-07 12:39 -16.48535 -47.50443 21571 ft 405 kts 136°
2026-05-07 12:40 -16.50542 -47.48378 22024 ft 406 kts 136°
2026-05-07 12:40 -16.52560 -47.46300 22451 ft 409 kts 136°
2026-05-07 12:40 -16.54591 -47.44208 22864 ft 411 kts 136°
2026-05-07 12:40 -16.56630 -47.42109 23261 ft 413 kts 136°
2026-05-07 12:41 -16.58672 -47.40004 23664 ft 415 kts 136°
2026-05-07 12:41 -16.60729 -47.37883 23998 ft 418 kts 136°
2026-05-07 12:41 -16.62775 -47.35772 24354 ft 420 kts 136°
2026-05-07 12:41 -16.64810 -47.33673 24721 ft 422 kts 136°
2026-05-07 12:42 -16.66870 -47.31547 25078 ft 423 kts 136°
2026-05-07 12:42 -16.68975 -47.29372 25409 ft 426 kts 136°
2026-05-07 12:42 -16.71088 -47.27192 25746 ft 428 kts 136°
2026-05-07 12:42 -16.73210 -47.24998 26073 ft 430 kts 136°
2026-05-07 12:43 -16.75341 -47.22796 26388 ft 432 kts 136°
2026-05-07 12:43 -16.77483 -47.20583 26710 ft 434 kts 136°
2026-05-07 12:43 -16.79635 -47.18358 27015 ft 436 kts 136°
2026-05-07 12:43 -16.81800 -47.16119 27313 ft 438 kts 136°
2026-05-07 12:44 -16.83959 -47.13885 27619 ft 440 kts 136°
2026-05-07 12:44 -16.86138 -47.11642 27926 ft 441 kts 137°
2026-05-07 12:44 -16.88379 -47.09438 28231 ft 442 kts 139°
2026-05-07 12:44 -16.90638 -47.07273 28640 ft 440 kts 139°
2026-05-07 12:45 -16.92895 -47.05123 29089 ft 438 kts 139°
2026-05-07 12:45 -16.95108 -47.03007 29504 ft 436 kts 139°
2026-05-07 12:45 -16.97347 -47.00855 29881 ft 436 kts 139°
2026-05-07 12:45 -16.99571 -46.98708 30279 ft 435 kts 139°
2026-05-07 12:46 -17.01787 -46.96564 30685 ft 433 kts 139°
2026-05-07 12:46 -17.03996 -46.94423 31043 ft 433 kts 139°
2026-05-07 12:46 -17.06204 -46.92282 31399 ft 433 kts 139°
2026-05-07 12:46 -17.08408 -46.90145 31783 ft 431 kts 139°
2026-05-07 12:47 -17.10594 -46.88025 32175 ft 430 kts 139°
2026-05-07 12:47 -17.12785 -46.85900 32569 ft 428 kts 139°
2026-05-07 12:47 -17.14967 -46.83782 32923 ft 428 kts 139°
2026-05-07 12:47 -17.17145 -46.81668 33209 ft 428 kts 139°
2026-05-07 12:48 -17.21559 -46.77376 33218 ft 438 kts 139°
2026-05-07 12:48 -17.26073 -46.72979 33226 ft 448 kts 139°
2026-05-07 12:49 -17.30648 -46.68516 33218 ft 450 kts 139°
2026-05-07 12:49 -17.35225 -46.64046 33211 ft 449 kts 139°
2026-05-07 12:50 -17.39794 -46.59584 33206 ft 448 kts 139°
2026-05-07 12:50 -17.44319 -46.55161 33213 ft 447 kts 139°
2026-05-07 12:51 -17.48866 -46.50714 33220 ft 446 kts 139°
2026-05-07 12:51 -17.53398 -46.46280 33218 ft 446 kts 139°
2026-05-07 12:52 -17.57927 -46.41845 33220 ft 445 kts 139°
2026-05-07 12:52 -17.62450 -46.37412 33226 ft 444 kts 139°
2026-05-07 12:53 -17.66959 -46.32989 33217 ft 444 kts 139°
2026-05-07 12:53 -17.71441 -46.28589 33223 ft 444 kts 139°
2026-05-07 12:54 -17.75218 -46.24879 33223 ft 444 kts 139°
2026-05-07 12:54 -17.80458 -46.19731 33222 ft 443 kts 139°
2026-05-07 12:55 -17.84201 -46.16048 33223 ft 444 kts 139°
2026-05-07 12:55 -17.88702 -46.11617 33223 ft 444 kts 139°
2026-05-07 12:56 -17.93214 -46.07173 33221 ft 444 kts 139°
2026-05-07 12:56 -17.97725 -46.02727 33225 ft 444 kts 139°
2026-05-07 12:57 -18.02230 -45.98284 33221 ft 444 kts 139°
2026-05-07 12:57 -18.06741 -45.93830 33224 ft 444 kts 139°
2026-05-07 12:58 -18.11218 -45.89405 33222 ft 444 kts 139°
2026-05-07 12:58 -18.15722 -45.84950 33221 ft 445 kts 139°
2026-05-07 12:59 -18.20228 -45.80490 33220 ft 445 kts 139°
2026-05-07 12:59 -18.24732 -45.76029 33222 ft 445 kts 139°
2026-05-07 13:00 -18.29234 -45.71566 33220 ft 444 kts 139°
2026-05-07 13:00 -18.33730 -45.67106 33222 ft 444 kts 139°
2026-05-07 13:01 -18.38223 -45.62645 33222 ft 444 kts 139°
2026-05-07 13:01 -18.42722 -45.58175 33219 ft 444 kts 139°
2026-05-07 13:02 -18.46852 -45.53323 33229 ft 446 kts 130°
2026-05-07 13:02 -18.50543 -45.48104 33221 ft 447 kts 129°
2026-05-07 13:03 -18.54253 -45.42846 33132 ft 449 kts 129°
2026-05-07 13:03 -18.56150 -45.40204 32528 ft 452 kts 129°
2026-05-07 13:03 -18.58049 -45.37578 31866 ft 451 kts 130°
2026-05-07 13:04 -18.60061 -45.34811 31115 ft 451 kts 130°
2026-05-07 13:04 -18.61973 -45.32187 30379 ft 451 kts 130°
2026-05-07 13:04 -18.63888 -45.29560 29603 ft 452 kts 130°
2026-05-07 13:04 -18.65802 -45.26933 28910 ft 451 kts 129°
2026-05-07 13:05 -18.67701 -45.24323 28345 ft 446 kts 129°
2026-05-07 13:05 -18.69583 -45.21734 27762 ft 442 kts 129°
2026-05-07 13:05 -18.71443 -45.19173 27196 ft 438 kts 129°
2026-05-07 13:05 -18.73290 -45.16631 26634 ft 435 kts 129°
2026-05-07 13:06 -18.75123 -45.14106 26070 ft 432 kts 129°
2026-05-07 13:06 -18.76943 -45.11598 25509 ft 428 kts 129°
2026-05-07 13:06 -18.78746 -45.09114 24949 ft 425 kts 128°
2026-05-07 13:06 -18.80540 -45.06641 24394 ft 422 kts 128°
2026-05-07 13:07 -18.83870 -45.02047 23351 ft 417 kts 128°
2026-05-07 13:07 -18.85628 -44.99619 22792 ft 414 kts 128°
2026-05-07 13:07 -18.87373 -44.97210 22245 ft 411 kts 128°
2026-05-07 13:08 -18.89105 -44.94818 21693 ft 408 kts 128°
2026-05-07 13:08 -18.90826 -44.92440 21147 ft 405 kts 128°
2026-05-07 13:08 -18.92532 -44.90081 20617 ft 403 kts 128°
2026-05-07 13:08 -18.94225 -44.87740 20079 ft 400 kts 128°
2026-05-07 13:09 -18.95912 -44.85406 19543 ft 397 kts 128°
2026-05-07 13:09 -18.97581 -44.83097 19010 ft 394 kts 128°
2026-05-07 13:09 -18.99220 -44.80827 18492 ft 392 kts 127°
2026-05-07 13:09 -19.00867 -44.78544 17966 ft 389 kts 127°
2026-05-07 13:10 -19.02501 -44.76279 17454 ft 386 kts 127°
2026-05-07 13:10 -19.04128 -44.74024 16936 ft 384 kts 127°
2026-05-07 13:10 -19.05740 -44.71789 16428 ft 381 kts 127°
2026-05-07 13:10 -19.07344 -44.69565 15920 ft 379 kts 127°
2026-05-07 13:11 -19.08928 -44.67366 15429 ft 375 kts 127°
2026-05-07 13:11 -19.10507 -44.65173 14917 ft 373 kts 127°
2026-05-07 13:11 -19.12075 -44.62994 14428 ft 371 kts 127°
2026-05-07 13:11 -19.13629 -44.60834 13938 ft 368 kts 127°
2026-05-07 13:12 -19.15173 -44.58689 13448 ft 365 kts 127°
2026-05-07 13:12 -19.16706 -44.56555 12961 ft 363 kts 126°
2026-05-07 13:12 -19.18229 -44.54436 12475 ft 361 kts 126°
2026-05-07 13:12 -19.19742 -44.52330 11979 ft 359 kts 126°
2026-05-07 13:13 -19.21244 -44.50239 11513 ft 356 kts 126°
2026-05-07 13:13 -19.22738 -44.48157 11125 ft 351 kts 126°
2026-05-07 13:13 -19.24188 -44.46137 10999 ft 339 kts 126°
2026-05-07 13:13 -19.25594 -44.44181 10863 ft 328 kts 126°
2026-05-07 13:14 -19.26938 -44.42307 10724 ft 318 kts 126°
2026-05-07 13:14 -19.28258 -44.40466 10591 ft 309 kts 126°
2026-05-07 13:14 -19.29537 -44.38681 10460 ft 300 kts 126°
2026-05-07 13:14 -19.30781 -44.36946 10343 ft 291 kts 126°
2026-05-07 13:15 -19.31976 -44.35256 10211 ft 282 kts 122°
2026-05-07 13:15 -19.32781 -44.33387 9968 ft 278 kts 106°
2026-05-07 13:15 -19.33368 -44.31441 9737 ft 278 kts 107°
2026-05-07 13:15 -19.33980 -44.29499 9485 ft 277 kts 107°
2026-05-07 13:16 -19.34602 -44.27572 9220 ft 277 kts 107°
2026-05-07 13:16 -19.35226 -44.25641 8970 ft 276 kts 108°
2026-05-07 13:16 -19.35856 -44.23726 8716 ft 275 kts 108°
2026-05-07 13:16 -19.36524 -44.21825 8457 ft 275 kts 116°
2026-05-07 13:17 -19.37736 -44.20289 8221 ft 273 kts 138°
2026-05-07 13:17 -19.39172 -44.19028 7940 ft 272 kts 139°
2026-05-07 13:17 -19.40643 -44.17738 7594 ft 274 kts 139°
2026-05-07 13:17 -19.42113 -44.16437 7287 ft 275 kts 139°
2026-05-07 13:18 -19.43565 -44.15145 6942 ft 269 kts 138°
2026-05-07 13:18 -19.44958 -44.13870 6662 ft 261 kts 137°
2026-05-07 13:18 -19.46312 -44.12624 6357 ft 254 kts 137°
2026-05-07 13:18 -19.47632 -44.11407 6102 ft 248 kts 137°
2026-05-07 13:19 -19.48914 -44.10222 5862 ft 239 kts 137°
2026-05-07 13:19 -19.50138 -44.09092 5600 ft 228 kts 137°
2026-05-07 13:19 -19.51311 -44.08012 5330 ft 218 kts 137°
2026-05-07 13:19 -19.52431 -44.06983 5098 ft 209 kts 137°
2026-05-07 13:20 -19.53496 -44.06004 4882 ft 197 kts 137°
2026-05-07 13:20 -19.54495 -44.05082 4674 ft 186 kts 137°
2026-05-07 13:20 -19.55463 -44.04192 4500 ft 184 kts 137°
2026-05-07 13:20 -19.56418 -44.03309 4300 ft 177 kts 137°
2026-05-07 13:21 -19.57310 -44.02484 4079 ft 166 kts 137°
2026-05-07 13:21 -19.58162 -44.01696 3852 ft 160 kts 137°
2026-05-07 13:21 -19.59007 -44.00912 3663 ft 163 kts 137°
2026-05-07 13:21 -19.59867 -44.00116 3435 ft 163 kts 137°
2026-05-07 13:22 -19.60720 -43.99327 3209 ft 161 kts 137°
2026-05-07 13:22 -19.61561 -43.98550 3005 ft 160 kts 138°
2026-05-07 13:22 -19.62391 -43.97783 2775 ft 159 kts 137°
2026-05-07 13:22 -19.63189 -43.97043 2751 ft 137 kts 139°
2026-05-07 13:23 -19.63550 -43.96694 2751 ft 25 kts 115°
2026-05-07 13:23 -19.63610 -43.96527 2751 ft 23 kts 110°
2026-05-07 13:23 -19.63626 -43.96373 2752 ft 19 kts 50°
2026-05-07 13:23 -19.63514 -43.96304 2753 ft 18 kts 29°
2026-05-07 13:24 -19.63418 -43.96337 2753 ft 17 kts 300°
2026-05-07 13:24 -19.63352 -43.96442 2751 ft 17 kts 315°
2026-05-07 13:24 -19.63266 -43.96521 2751 ft 16 kts 320°
2026-05-07 13:24 -19.63182 -43.96597 2753 ft 16 kts 320°
2026-05-07 13:25 -19.63102 -43.96671 2754 ft 15 kts 319°
2026-05-07 13:25 -19.63040 -43.96726 2754 ft 11 kts 327°
2026-05-07 13:25 -19.62983 -43.96702 2753 ft 7 kts 48°
2026-05-07 13:25 -19.62968 -43.96684 2751 ft 1 kts 50°